COSMOS 2251 DEB, 38056

Orbit data source: Space-Track

COSMOS 2251 DEB, 38056 is space debris in LEO originally from a launch on Wed, 16 Jun 1993 UTC launched from the Plesetsk Missile And Space Complex (PKMTR). The debris from Iridium 33, an American commercial communications satellite, has been tracked extensively since its accidental collision with the defunct Russian satellite Cosmos 2251 in 2009. This event, occurring at high speed in low Earth orbit (LEO), generated thousands of pieces of space debris, significantly increasing the risk of further collisions. The Iridium 33 debris cloud has impacted space traffic management and orbital debris mitigation strategies, making it a subject of ongoing study in space situational awareness.

Loading next visibility...
Identifier
38056, 1993-036BRN
Orbit
LEO
Country
Flag of CISCIS
Related business
Manufacturer
Unknown
Mission
Spacecraft
Bus & Motor
Unknown
Mass
Unknown
Launch date (UTC)
1993-06-16 (33 years ago)
Launch vehicle
Unknown
Launch site
Plesetsk Missile And Space Complex (PKMTR)
Object type
Payload
Rocket body
Debris
Shape & HBR
Unknown shape, 1.1 m
Radar Cross Section
Small (<0.1 m²)

Expand to show TLE details & history
Last TLE update: 1 week ago

TLE from 1 week ago
0 COSMOS 2251 DEB
1 38056U 93036BRN 26111.50508080  .00004821  00000-0  29048-2 0  9990
2 38056  73.9198  53.7490 0274324  15.4649 345.4650 13.89917091660760
Epoch: 2026-04-21T12:07Z
TLE epoch observation values (Epoch: 2026-04-21T12:07:18.981Z)
Latitude
-0.00003°
Longitude
22.34°
Altitude
737.766 km
Speed
7.585 km/s
True Right ascension
03h 34m 59s
True Declination
0° 00' 00"
Sunlit
Object was in daylight at epoch
Visualization orbit readout
Latitude
Unknown
Longitude
Unknown
Altitude
Unknown
Speed
Unknown
Apparent Right ascension
Unknown
Apparent Declination
Unknown
Sunlit
N/A
Visualization observer readout
Local Sidereal Time
19:50:10
Azimuth
Unknown
Elevation
Unknown
Doppler factor
Unknown
Orbital elements
Apogee altitude
1,126.99 km
Perigee altitude
726.217 km
Semi-major axis
7,304.741 km
Eccentricity
0.02743
Inclination
73.9198°
RAAN
53.749°
Arg. of periapsis
15.4649°
True anomaly
344.64905°
Mean anomaly
345.465°
Eccentric anomaly
345.05978°
Mean motion
3.47645 °/min
Orbital period
103.55 mins
BSTAR
0.0029048
Loading maneuver chart data...
Computing Atmospheric mass density...

Documentation

Showing up to 5 results
|